{"data":{"norad_id":54791,"epoch":"2026-05-25T03:40:15.680928Z","epoch_age_seconds":58331,"freshness":"FRESH","line1":"1 54791U 22175AK  26145.15295927  .00000367  00000+0  41171-4 0  9994","line2":"2 54791  53.2151  45.8078 0001384  79.4463 280.6685 15.08840017191679","mean_motion":15.08840017,"eccentricity":0.0001384,"inclination_deg":53.2151,"raan_deg":45.8078,"arg_perigee_deg":79.4463,"mean_anomaly_deg":280.6685,"bstar":4.1171e-5,"rev_number":19167,"period_min":95.437553602477,"perigee_km":538.78590236326,"apogee_km":540.70077164055,"semimajor_km":6917.8803370019,"source":"CELESTRAK","updated_at":"2026-05-25T13:38:17.694734Z"}}